TimeCDT,TemperatureF,Dew PointF,Humidity,Sea Level PressureIn,VisibilityMPH,Wind Direction,Wind SpeedMPH,Gust SpeedMPH,PrecipitationIn,Events,Conditions,WindDirDegrees,DateUTC
12:53 AM,64.9,55.9,73,29.64,10.0,SE,11.5,20.7,N/A,,Clear,130,2013-09-26 05:53:00
1:53 AM,66.0,57.0,73,29.62,10.0,SE,18.4,25.3,N/A,,Clear,140,2013-09-26 06:53:00
2:53 AM,66.0,57.9,75,29.60,10.0,SE,18.4,26.5,N/A,,Clear,140,2013-09-26 07:53:00
3:53 AM,66.0,59.0,78,29.58,10.0,SSE,20.7,28.8,N/A,,Clear,150,2013-09-26 08:53:00
4:53 AM,66.0,59.0,78,29.57,10.0,SSE,20.7,34.5,N/A,,Clear,150,2013-09-26 09:53:00
5:53 AM,64.9,57.9,78,29.58,10.0,SSE,17.3,25.3,N/A,,Clear,150,2013-09-26 10:53:00
6:53 AM,64.9,57.0,75,29.62,10.0,SSE,15.0,21.9,N/A,,Clear,150,2013-09-26 11:53:00
7:53 AM,64.9,57.0,75,29.64,10.0,SSE,15.0,21.9,N/A,,Clear,150,2013-09-26 12:53:00
8:53 AM,66.9,57.0,70,29.65,10.0,SSE,13.8,24.2,N/A,,Clear,150,2013-09-26 13:53:00
9:53 AM,70.0,57.9,65,29.65,10.0,South,16.1,26.5,N/A,,Clear,170,2013-09-26 14:53:00
10:53 AM,73.0,57.9,59,29.66,10.0,South,16.1,28.8,N/A,,Clear,170,2013-09-26 15:53:00
11:53 AM,77.0,57.9,52,29.66,10.0,South,17.3,25.3,N/A,,Clear,170,2013-09-26 16:53:00
12:53 PM,79.0,57.9,48,29.66,10.0,South,13.8,21.9,N/A,,Clear,180,2013-09-26 17:53:00
1:53 PM,81.0,57.0,44,29.66,10.0,South,13.8,21.9,N/A,,Clear,190,2013-09-26 18:53:00
2:53 PM,82.9,57.0,41,29.65,10.0,South,11.5,-,N/A,,Clear,190,2013-09-26 19:53:00
3:53 PM,84.0,57.9,41,29.64,10.0,South,10.4,-,N/A,,Clear,170,2013-09-26 20:53:00
4:53 PM,84.0,57.9,41,29.65,10.0,South,12.7,-,N/A,,Clear,180,2013-09-26 21:53:00
5:53 PM,82.9,57.9,42,29.65,10.0,South,9.2,-,N/A,,Clear,190,2013-09-26 22:53:00
6:53 PM,81.0,59.0,47,29.65,10.0,South,3.5,-,N/A,,Clear,180,2013-09-26 23:53:00
7:53 PM,75.0,59.0,57,29.67,10.0,NE,3.5,-,N/A,,Clear,50,2013-09-27 00:53:00
8:53 PM,72.0,60.1,66,29.68,10.0,NNE,3.5,-,N/A,,Mostly Cloudy,30,2013-09-27 01:53:00
9:53 PM,73.0,60.1,64,29.70,10.0,ENE,4.6,-,N/A,,Mostly Cloudy,70,2013-09-27 02:53:00
10:53 PM,72.0,59.0,64,29.69,10.0,South,3.5,-,N/A,,Clear,170,2013-09-27 03:53:00
11:53 PM,72.0,59.0,64,29.69,10.0,SSE,4.6,-,N/A,,Scattered Clouds,150,2013-09-27 04:53:00